www.pogodaiklimat.ru

Погода и климат >> Архив погоды >> Дания >> Мыс Nakkehoved


ПОГОДА на Мысе Nakkehoved

  • Прогноз погоды на Мысе Nakkehoved
  • Монитор погоды на Мысе Nakkehoved

АРХИВ ПОГОДЫ на Мысе Nakkehoved

Время (UTC), дата Ветер
(напр.,м/с)
 
Видим.   Явления Облачность Т
(С)
Тd
(С)
f
(%)
Тe
(С)
Тes
(С)
Комфортность P
(гПа)
Po
(гПа)
Тmin
(С)
Tmax
(С)
R
(мм)
R24
(мм)
S
(см)
10 13.09 СЗ 10 н/о н/о +14.9 +9.5 70 +13 +13 1023.9 1018.7
11 13.09 СЗ 10 н/о н/о +15.0 +9.8 71 +13 +13 1024.7 1019.5
12 13.09 СЗ 10 н/о н/о +14.9 +9.6 71 +12 +12 1025.1 1019.9
13 13.09 СЗ 11 н/о н/о +15.2 +9.3 68 +13 +13 1025.8 1020.6
14 13.09 СЗ 11 н/о н/о +15.0 +9.7 71 +13 +13 1026.4 1021.2
15 13.09 СЗ 8-13
{17}
н/о н/о +15.2 +9.6 69 +13 +13 1027.1 1021.9
16 13.09 СЗ 8 н/о н/о +15.2 +8.7 65 +13 +13 1026.5 1021.3
17 13.09 СЗ 9 н/о н/о +15.2 +8.9 66 +13 +13 1027.0 1021.8
18 13.09 СЗ 11-16
{20}
н/о н/о +14.7 +8.7 67 +12 +12 1027.8 1022.6 +14.1 +15.4
19 13.09 СЗ 9 н/о н/о +14.3 +9.0 70 +12 +12 1028.9 1023.6
20 13.09 СЗ 9 н/о н/о +14.0 +8.1 68 +11 +11 1028.8 1023.5
21 13.09 СЗ 9-14
{16}
н/о н/о +13.7 +9.1 74 +11 +11 1029.1 1023.9
22 13.09 СЗ 10 н/о н/о +13.6 +9.2 75 +11 +11 1029.5 1024.2
23 13.09 СЗ 8 н/о н/о +13.4 +9.1 75 +11 +11 1029.7 1024.4
00 14.09 СЗ 8 н/о н/о +13.5 +9.5 77 +11 +11 1029.3 1024.1
01 14.09 СЗ 8 н/о н/о +13.4 +9.2 76 +11 +11 1029.6 1024.4
02 14.09 СЗ 7 н/о н/о +13.5 +9.3 76 +11 +11 1029.6 1024.3
03 14.09 СЗ 6
{14}
н/о н/о +13.1 +9.2 77 +11 +11 1030.0 1024.7
04 14.09 СЗ 6 н/о н/о +13.1 +9.1 77 +11 +11 1029.8 1024.6
05 14.09 СЗ 6 н/о н/о +13.2 +9.3 77 +11 +11 1030.0 1024.7
06 14.09 СЗ 7
{15}
н/о н/о +13.4 +9.3 76 +11 +11 1030.2 1025.0 +12.9 +14.8
07 14.09 СЗ 6 н/о н/о +13.7 +8.8 72 +12 +12 1030.7 1025.4
08 14.09 СЗ 5 н/о н/о +14.3 +9.2 71 +13 +13 1030.9 1025.6
09 14.09 З 5-10
{13}
н/о н/о +14.4 +8.8 69 +13 +13 1031.1 1025.8
10 14.09 З 4 н/о н/о +15.5 +9.6 68 +15 +15 1030.7 1025.5
11 14.09 З 3 н/о н/о +15.6 +9.5 67 +15 +15 1030.8 1025.6
12 14.09 З 3 н/о н/о +15.7 +10.2 70 +15 +15 1030.4 1025.1
13 14.09 З 3 н/о н/о +15.6 +8.9 64 +15 +15 1029.9 1024.6
14 14.09 ЮЗ 3 н/о н/о +15.9 +9.2 64 +15 +15 1029.0 1023.7
15 14.09 З 3-8
{10}
н/о н/о +15.6 +8.7 63 +15 +15 1028.2 1023.0
16 14.09 ЮЗ 3 н/о н/о +15.0 +8.1 63 +14 +14 1027.3 1022.1
17 14.09 ЮЗ 3 н/о н/о +14.6 +7.5 62 +14 +14 1026.7 1021.4
18 14.09 ЮЗ 3
{10}
н/о н/о +13.6 +7.2 65 +13 +13 1025.7 1020.5 +13.3 +16.2
19 14.09 ЮЗ 3 н/о н/о +12.6 +8.2 75 +11 +11 1025.1 1019.8
20 14.09 Ю 3 н/о н/о +12.8 +8.6 76 +12 +12 1024.0 1018.8
21 14.09 ЮЗ 3 н/о н/о +13.0 +8.8 76 +12 +12 1022.9 1017.7
22 14.09 Ю 3 н/о н/о +11.8 +8.7 81 +10 +10 1021.8 1016.6
23 14.09 Ю 3 н/о н/о +11.4 +9.1 86 +10 +10 1020.5 1015.3
00 15.09 ЮЗ 5-10
{11}
н/о н/о +13.4 +10.0 80 +12 +12 1019.2 1014.0
01 15.09 ЮЗ 5 н/о н/о +14.0 +10.1 77 +12 +12 1017.0 1011.8
02 15.09 ЮЗ 5 н/о н/о +14.3 +10.7 79 +13 +13 1016.3 1011.1
03 15.09 ЮЗ 5-10
{14}
н/о н/о +13.9 +10.7 81 +12 +12 1015.0 1009.8
04 15.09 ЮЗ 5 н/о н/о +14.1 +10.3 78 +12 +12 1013.0 1007.8
05 15.09 ЮЗ 4 н/о н/о +14.2 +10.6 79 +13 +13 1012.0 1006.8
06 15.09 ЮЗ 5-11
{14}
н/о н/о +14.8 +11.1 78 +13 +13 1011.0 1005.9 +11.3 +14.9
07 15.09 ЮЗ 5 н/о н/о +14.5 +12.7 89 +13 +13 1010.5 1005.3
08 15.09 ЮЗ 5 н/о н/о +15.0 +13.4 90 +14 +14 1010.1 1005.0
09 15.09 З 6-13
{16}
н/о н/о +12.9 +11.6 92 +10 +10 1011.0 1005.8
10 15.09 З 6 н/о н/о +14.0 +9.8 76 +12 +12 1011.3 1006.1
11 15.09 З 6 н/о н/о +14.9 +10.2 73 +13 +13 1011.4 1006.3
12 15.09 З 6 н/о н/о +15.4 +7.7 60 +14 +14 1011.4 1006.3
13 15.09 З 5 н/о н/о +15.5 +8.9 65 +14 +14 1011.7 1006.6
14 15.09 З 6 н/о н/о +14.7 +7.9 64 +13 +13 1011.6 1006.4
15 15.09 З 7-14
{16}
н/о н/о +14.4 +6.7 60 +12 +12 1011.8 1006.7
16 15.09 З 6 н/о н/о +13.7 +5.9 59 +12 +12 1011.9 1006.8
17 15.09 З 6 н/о н/о +13.7 +7.2 65 +12 +12 1011.7 1006.5
18 15.09 З 6-12
{17}
н/о н/о +13.1 +7.0 66 +11 +11 1011.7 1006.6 +12.7 +15.7
19 15.09 З 7 н/о н/о +13.2 +6.8 65 +11 +11 1011.7 1006.6
20 15.09 З 6 н/о н/о +13.2 +7.3 67 +11 +11 1011.9 1006.7
21 15.09 З 6-17
{17}
н/о н/о +13.1 +7.4 68 +11 +11 1011.8 1006.6
22 15.09 З 8 н/о н/о +13.1 +7.5 69 +10 +10 1012.1 1006.9
23 15.09 З 7 н/о н/о +12.9 +7.9 72 +10 +10 1012.1 1006.9
00 16.09 З 7 н/о н/о +13.1 +8.1 72 +11 +11 1011.9 1006.7
01 16.09 З 6 н/о н/о +12.9 +8.4 74 +10 +10 1012.2 1007.0
02 16.09 З 8 н/о н/о +12.8 +8.1 73 +10 +10 1012.4 1007.2
03 16.09 З 7-14
{17}
н/о н/о +12.6 +7.9 73 +10 +10 1012.5 1007.3
04 16.09 З 8 н/о н/о +12.5 +7.4 71 +10 +10 1012.5 1007.3
05 16.09 СЗ 9 н/о н/о +12.6 +7.5 71 +9 +9 1011.7 1006.5
06 16.09 СЗ 9-17
{17}
н/о н/о +12.6 +6.7 67 +10 +10 1012.0 1006.8 +12.3 +13.5
07 16.09 СЗ 8 н/о н/о +12.7 +6.5 66 +10 +10 1012.0 1006.8
08 16.09 СЗ 8 н/о н/о +12.8 +7.2 69 +10 +10 1012.4 1007.2
09 16.09 СЗ 10-17
{17}
н/о н/о +13.1 +7.4 68 +10 +10 1012.1 1006.9
10 16.09 СЗ 8 н/о н/о +13.3 +7.1 66 +11 +11 1012.5 1007.3
11 16.09 СЗ 9 н/о н/о +13.3 +6.6 64 +10 +10 1012.5 1007.3
12 16.09 СЗ 8 н/о н/о +13.4 +6.7 64 +11 +11 1012.5 1007.3
13 16.09 З 6 н/о н/о +13.9 +5.3 56 +12 +12 1012.4 1007.3
14 16.09 СЗ 10 н/о н/о +13.9 +6.7 62 +11 +11 1012.3 1007.1
15 16.09 СЗ 9
{17}
н/о н/о +14.0 +8.0 67 +11 +11 1012.4 1007.2
16 16.09 СЗ 8 н/о н/о +13.8 +7.5 66 +11 +11 1012.1 1007.0
17 16.09 СЗ 9 н/о н/о +13.8 +7.4 65 +11 +11 1011.9 1006.7
18 16.09 З 7 н/о н/о +13.3 +6.8 65 +11 +11 1012.5 1007.3 +12.3 +14.1
19 16.09 СЗ 8 н/о н/о +13.1 +7.8 70 +10 +10 1012.2 1007.1
20 16.09 СЗ 8 н/о н/о +12.6 +8.1 74 +10 +10 1012.2 1007.0
21 16.09 СЗ 7-12
{15}
н/о н/о +12.3 +7.9 74 +10 +10 1011.5 1006.4
22 16.09 З 6 н/о н/о +12.3 +8.0 75 +10 +10 1011.3 1006.1
23 16.09 З 5 н/о н/о +12.2 +7.9 75 +10 +10 1010.8 1005.7
00 17.09 З 5 н/о н/о +12.2 +7.5 73 +10 +10 1010.2 1005.0
01 17.09 З 5 н/о н/о +11.8 +7.5 75 +9 +9 1009.5 1004.3
02 17.09 З 5 н/о н/о +12.0 +7.2 72 +10 +10 1009.0 1003.8
03 17.09 СЗ 8-13
{15}
н/о н/о +12.0 +8.3 78 +9 +9 1008.1 1002.9
04 17.09 З 7 н/о н/о +11.3 +6.7 73 +8 +8 1007.4 1002.3
05 17.09 З 7 н/о н/о +10.3 +4.7 68 +7 +7 1007.2 1002.0
06 17.09 З 7-14
{16}
н/о н/о +10.8 +5.0 67 +7 +7 1006.8 1001.6 +9.7 +13.3
07 17.09 З 7 н/о н/о +10.7 +5.0 68 +7 +7 1006.6 1001.4
08 17.09 З 6 н/о н/о +10.2 +4.4 67 +7 +7 1006.2 1001.0
09 17.09 З 6-14
{17}
н/о н/о +10.8 +4.9 67 +8 +8 1005.7 1000.5
10 17.09 З 7 н/о н/о +10.9 +5.0 67 +8 +8 1005.5 1000.3
11 17.09 З 7 н/о н/о +11.5 +5.1 65 +9 +9 1004.9 999.7
12 17.09 СЗ 8-14
{17}
н/о н/о +11.3 +5.5 67 +8 +8 1004.5 999.3
13 17.09 СЗ 13 н/о н/о +9.4 +6.6 83 +4 +4 1004.0 998.8
14 17.09 СЗ 13 н/о н/о +11.7 +5.6 66 +8 +8 1003.8 998.7
15 17.09 СЗ 12-19
{23}
н/о н/о +11.9 +5.8 66 +8 +8 1004.8 999.6
16 17.09 СЗ 14 н/о н/о +12.2 +5.0 61 +8 +8 1005.1 1000.0
17 17.09 С 17 н/о н/о +9.7 +6.3 79 +4 +4 1006.4 1001.2
18 17.09 С 13-19
{30}
н/о н/о +10.0 +6.6 79 +5 +5 1007.3 1002.1 +9.2 +12.4
19 17.09 С 15 н/о н/о +10.7 +6.5 75 +6 +6 1008.1 1002.9
20 17.09 С 12 н/о н/о +11.0 +5.9 71 +7 +7 1010.2 1004.9
21 17.09 С 11
{24}
н/о н/о +12.1 +6.3 68 +8 +8 1011.0 1005.8
22 17.09 С 9 н/о н/о +12.4 +4.7 59 +9 +9 1011.7 1006.5
23 17.09 С 7 н/о н/о +12.7 +6.3 65 +10 +10 1012.4 1007.2
00 18.09 СЗ 6 н/о н/о +11.4 +7.1 75 +9 +9 1012.8 1007.5
01 18.09 СЗ 8 н/о н/о +13.0 +5.6 61 +10 +10 1012.7 1007.6
02 18.09 СЗ 9 н/о н/о +12.4 +8.6 78 +9 +9 1013.2 1008.0
03 18.09 СЗ 10
{14}
н/о н/о +12.5 +8.2 75 +9 +9 1013.3 1008.1
04 18.09 СЗ 8 н/о н/о +12.4 +7.0 70 +9 +9 1013.8 1008.6
05 18.09 СЗ 8 н/о н/о +12.5 +7.8 73 +9 +9 1014.3 1009.1
06 18.09 СЗ 8
{15}
н/о н/о +12.8 +7.7 71 +10 +10 1014.8 1009.6 +9.9 +13.1
07 18.09 С 7 н/о н/о +10.9 +9.5 91 +7 +7 1015.5 1010.3
08 18.09 СЗ 6 н/о н/о +10.6 +9.9 95 +7 +7 1016.4 1011.2
09 18.09 С 4
{13}
н/о н/о +11.1 +9.0 87 +9 +9 1016.8 1011.6
10 18.09 ЮЗ 2 н/о н/о +9.5 +8.6 94 +8 +8 1017.6 1012.4
11 18.09 ЮЗ 1 н/о н/о +9.3 +8.9 97 +8 +8 1018.2 1012.9
12 18.09 ЮЗ 2 н/о н/о +8.7 +8.0 95 +7 +7 1018.2 1012.9
13 18.09 СЗ 8 н/о н/о +12.0 +8.2 78 +9 +9 1018.1 1012.9
14 18.09 СЗ 8 н/о н/о +12.5 +7.4 71 +9 +9 1018.4 1013.2
15 18.09 СЗ 8
{11}
н/о н/о +12.3 +7.1 71 +9 +9 1018.7 1013.5
16 18.09 СЗ 7 н/о н/о +12.3 +7.6 73 +10 +10 1018.8 1013.5
17 18.09 СЗ 7 н/о н/о +12.5 +7.8 73 +10 +10 1018.8 1013.6
18 18.09 С 7
{14}
н/о н/о +12.1 +7.5 73 +9 +9 1019.3 1014.1 +8.3 +13.0
19 18.09 С 8 н/о н/о +12.2 +7.2 71 +9 +9 1019.8 1014.6
20 18.09 С 7 н/о н/о +12.0 +6.9 71 +9 +9 1020.1 1014.8
21 18.09 СЗ 7 н/о н/о +11.9 +7.3 73 +9 +9 1020.6 1015.4
22 18.09 СЗ 6 н/о н/о +11.9 +7.5 74 +9 +9 1021.0 1015.7
23 18.09 С 5 н/о н/о +11.6 +7.9 78 +9 +9 1021.6 1016.3
00 19.09 СЗ 6 н/о н/о +11.8 +8.3 79 +9 +9 1021.7 1016.4
01 19.09 СЗ 6 н/о н/о +11.7 +8.0 78 +9 +9 1021.9 1016.6
02 19.09 СЗ 5 н/о н/о +11.4 +7.6 77 +9 +9 1022.2 1017.0
03 19.09 СЗ 3 н/о н/о +10.3 +7.1 81 +8 +8 1022.5 1017.2
04 19.09 СЗ 2 н/о н/о +8.2 +5.8 85 +6 +6 1022.8 1017.5
05 19.09 З 2 н/о н/о +7.2 +5.2 87 +5 +5 1023.3 1017.9
06 19.09 З 2 н/о н/о +7.7 +6.4 91 +6 +6 1023.7 1018.4 +6.9 +12.3
07 19.09 С 5 н/о н/о +11.6 +7.9 78 +9 +9 1024.3 1019.1
08 19.09 С 4 н/о н/о +11.7 +7.1 73 +10 +10 1025.2 1019.9
09 19.09 С 4 н/о н/о +12.1 +6.2 67 +10 +10 1025.9 1020.6
10 19.09 С 4 н/о н/о +12.4 +6.4 67 +11 +11 1026.4 1021.2
11 19.09 С 4 н/о н/о +12.2 +7.2 71 +10 +10 1026.9 1021.6
12 19.09 С 4 н/о н/о +12.1 +7.2 72 +10 +10 1027.0 1021.7
13 19.09 СЗ 3 н/о н/о +12.4 +7.1 70 +11 +11 1026.8 1021.5
14 19.09 СЗ 4 н/о н/о +12.3 +6.7 69 +11 +11 1027.0 1021.7
15 19.09 СЗ 4 н/о н/о +12.2 +7.0 71 +10 +10 1026.7 1021.4
16 19.09 СЗ 4 н/о н/о +12.0 +6.3 68 +10 +10 1026.7 1021.4
17 19.09 С 3 н/о н/о +10.7 +5.7 71 +9 +9 1026.5 1021.2
18 19.09 СЗ 1 н/о н/о +9.5 +4.6 71 +9 +9 1026.9 1021.6 +7.6 +12.5
19 19.09 ЮЗ 2 н/о н/о +9.5 +5.2 75 +8 +8 1026.9 1021.6
20 19.09 ЮЗ 2 н/о н/о +9.3 +5.2 76 +8 +8 1026.7 1021.4
21 19.09 ЮЗ 3 н/о н/о +8.6 +5.0 78 +6 +6 1026.7 1021.4
22 19.09 ЮЗ 3 н/о н/о +8.0 +5.3 83 +6 +6 1026.5 1021.1
23 19.09 ЮЗ 3 н/о н/о +8.0 +6.1 88 +5 +5 1026.2 1020.8
00 20.09 З 2 н/о н/о +8.4 +6.7 89 +6 +6 1026.3 1021.0
01 20.09 З 4 н/о н/о +10.8 +8.7 87 +8 +8 1026.0 1020.7
02 20.09 З 4 н/о н/о +11.3 +8.4 82 +9 +9 1025.3 1020.0
03 20.09 З 4 н/о н/о +11.3 +8.7 84 +9 +9 1025.1 1019.8
05 20.09 З 3 н/о н/о +11.7 +8.9 83 +10 +10 1024.1 1018.8
06 20.09 З 3
{10}
н/о н/о +11.5 +10.5 94 +10 +10 1023.8 1018.5 +7.5 +12.0
07 20.09 З 5 н/о н/о +12.1 +11.4 95 +10 +10 1024.1 1018.8
08 20.09 СЗ 6 н/о н/о +12.7 +11.3 91 +10 +10 1024.3 1019.0
09 20.09 З 4 н/о н/о +13.7 +11.6 87 +12 +12 1024.1 1018.8
10 20.09 З 3 н/о н/о +13.3 +12.2 93 +12 +12 1024.1 1018.9
11 20.09 СЗ 5 н/о н/о +13.6 +11.9 89 +12 +12 1023.7 1018.5

 

Местоположение метеостанции Мыс Nakkehoved (Дания): широта 56.12 долгота 12.35 высота над уровнем моря 43 м.

В архиве по умолчанию представлена погода на Мысе Nakkehoved за последнюю неделю. Архивные данные за месяц целиком и за предыдущие месяцы, начиная с января 2011 года, Вы можете получить, выбрав интересующий диапазон дат из раскрывающегося списка и нажав кнопку "Ввод!".


*Определитесь, кто Вы:
робот инопланетянин человек

Внимание! Время в таблицах - всемирное. Для получения местного времени необходимо прибавить поправку, которая равна 1 ч.

Смотрите также архив погоды в соседних городах и на ближайших метеорологических станциях:

Погода в Сяелсмарке (Дания) (27 км)
Погода в Хельсингборге (Швеция) (28 км)
Погода в Ангелхольме (Швеция) (37 км)
Погода в Алландс Вадеро (Швеция) (39 км)
Погода в Копенгагене Jaegers (Дания) (42 км)
Погода в Ханнесторпе (Швеция) (46 км)
Погода в Копенгагене (Дания) (59 км)
Погода в Роскилле (Дания) (62 км)
Погода в Хольбеке (Дания) (64 км)
Погода в Гнибене (Дания) (67 км)

Пояснения к столбцам:

Ветер - указаны скорость ветра в м/с - средняя за 10 мин, порывы в срок и между сроками (в фигурных скобках) и направление, откуда дует ветер: С - северный, СВ - северо-восточный, В - восточный, ЮВ - юго-восточный, Ю - южный, ЮЗ - юго-западный, З - западный, СЗ - северо-западный.
Видимость - горизонтальная дальность видимости в метрах или километрах. При видимости от 1 до 10 км при отсутствии осадков обычно наблюдается дымка, при ухудшении видимости до 1 км и менее - туман. В сухую погоду видимость может ухудшаться дымом, пылью или мглою.
Явления - указаны атмосферные явления, наблюдавшиеся в срок или в последний час перед сроком; фигурными скобками обозначены явления, наблюдавшиеся между сроками (за 1-3 часа до срока); квадратными скобками обозначены град или гололедные отложения с указанием их диаметра в мм.
Облачность - указаны через наклонную черту общая и нижняя облачность в баллах и высота нижней границы облаков в метрах; квадратными скобками обозначены формы облаков: Ci - перистые, Cs - перисто-слоистые, Cc - перисто-кучевые, Ac - высококучевые, As - высокослоистые, Sc - слоисто-кучевые, Ns - слоисто-дождевые, Cu - кучевые, Cb - кучево-дождевые. Подробнее классификацию облаков см. в Атласе облаков (PDF).
T - Температура воздуха - температура, измеренная на высоте 2 м над землей.
Td - Температура точки росы - температура, при понижении до которой содержащийся в воздухе водяной пар достигнет насыщения.
f - Относительная влажность воздуха - влажноcть воздуха, измеренная на высоте 2 м над землей.
Te - Эффективная температура - температура, которую ощущает одетый по сезону человек в тени. Характеристика душности погоды. При расчете учитывается влияние влажности воздуха и скорости ветра на теплоощущения человека.
Tes - Эффективная температура на солнце - температура, которую ощущает человек, с поправкой на солнечный нагрев. Характеристика знойности погоды. Зависит от высоты солнца над горизонтом, облачности и скорости ветра. Ночью, в пасмурную погоду, а также при ветре 12 м/с и более поправка равна нулю.
P - Атмосферное давление - приведенное к уровню моря атмосферное давление.
Po - Атмосферное давление - измеренное на уровне метеостанции атмосферное давление.
Tmin - Минимальная температура - минимум температуры воздуха на высоте 2 м над землей.
Tmax - Максимальная температура - максимум температуры воздуха на высоте 2 м над землей.
R - Количество осадков - Количество выпавших осадков за период времени, мм. При наведении курсора мыши на число - период времени, за который выпало указанное количество осадков.
R24 - Количество осадков - Количество выпавших осадков за 24 часа, мм.
S - Снежный покров - Высота снежного покрова, см. При наведении курсора мыши на число - состояние снежного покрова и степень покрытия местности в баллах.